Flag for Chile Weather past 2 weeks in Osorno, Chile

Now
45 °F

Fog.


Feels Like: 41 °F
Forecast: 34 / 61 °F
Wind: 6 mph from North

Location: Puerto Montt Airport

Current Time: Aug 27, 2014 at 9:14:34 AM

Latest Report: Aug 27, 2014 at 8:00 AM


Visibility: 4 mi

Pressure: 29.98 "Hg

Humidity: 100%

Dew point: 45 °F

Location of OsornoLocation

Historic Weather in Osorno — Graph

°F

Osorno temperature yesterday

Maximum temperature yesterday: 54 °F (at 1:00 PM)
Minimum temperature yesterday: 41 °F (at 10:00 PM)
Average temperature yesterday: 47 °F

Past Weeks' High & Low Weather Summary

 TemperatureHumidityPressure
High61 °F (Aug 17, 4:00 PM)100% (Aug 12, 8:00 AM)30.57 "Hg (Aug 12, 8:00 AM)
Low30 °F (Aug 13, 6:00 AM)62% (Aug 12, 1:00 PM)29.86 "Hg (Aug 15, 6:00 PM)
Average48 °F88%30.08 "Hg
* Reported Aug 12 8:00 AM — Aug 27 8:00 AM, Osorno, Weather by CustomWeather, © 2014

Note: Actual official high and low records may vary slightly from our data, if they occured in-between our weather recording intervals... More about our weather records

Advertising

Osorno weather history for previous 24 hours

 ConditionsComfort  
Time TempWeatherWind HumidityBarometerVisibility
8:00 AM
Aug 27
45 °FFog.6 mph100%29.98 "Hg4 mi
7:00 AM45 °FFog.5 mph100%29.98 "Hg1 mi
6:00 AM45 °FFog.1 mph100%29.98 "Hg2 mi
5:00 AM45 °FFog.1 mph100%29.95 "Hg4 mi
3:00 AM45 °FFog.1 mph100%29.95 "Hg2 mi
2:00 AM45 °FFog.1 mph93%29.95 "Hg2 mi
1:00 AM45 °FFog.2 mph93%29.98 "Hg2 mi
12:00 AM45 °FLow clouds.1 mph93%29.98 "HgN/A
11:00 PM
Aug 26
43 °FFog.2 mph100%29.98 "Hg4 mi
10:00 PM41 °FFog.2 mph93%29.98 "Hg4 mi
9:00 PM43 °FClear.1 mph93%29.98 "Hg10 mi
8:00 PM43 °FClear.3 mph93%29.98 "Hg10 mi
7:00 PM45 °FClear.6 mph93%29.98 "Hg10 mi
6:00 PM48 °FClear.7 mph87%29.98 "Hg10 mi
5:00 PM52 °FScattered clouds.10 mph77%29.98 "HgN/A
4:00 PM52 °FScattered clouds.12 mph77%30.01 "HgN/A
3:00 PM54 °FScattered clouds.10 mph72%30.01 "HgN/A
2:00 PM54 °FScattered clouds.10 mph67%30.04 "HgN/A
1:00 PM54 °FPassing clouds.9 mph67%30.07 "HgN/A
12:00 PM52 °FPassing clouds.9 mph72%30.09 "HgN/A
11:00 AM50 °FScattered clouds.9 mph76%30.09 "HgN/A
10:00 AM46 °FPartly sunny.9 mph87%30.12 "HgN/A
9:00 AM45 °FPartly sunny.7 mph93%30.15 "HgN/A
Weather by CustomWeather, © 2014

See weather overviewHow to use our weather pages